Location: Dunn (historical)
(35.2693°N, 90.5721°W)
Time: 11:24:58
(UTC+00:00)

Cosmos 2369 - Pass Details

Date: 13 February 2026
Orbit: 840 x 853 km, 71.0° (Epoch: 8 March)

Event Time Altitude Azimuth Distance (km) Brightness Sun altitude
Rises 12:13:18 0° 227° (SW) 3,395 6.5 -8.2°
Reaches altitude 10° 12:16:01 10° 237° (WSW) 2,461 5.7 -7.7°
Maximum altitude 12:20:59 31° 299° (WNW) 1,438 4.4 -6.7°
Drops below altitude 10° 12:25:58 10° 1° (N) 2,465 6.0 -5.7°
Sets 12:28:42 0° 11° (NNE) 3,402 6.8 -5.2°
